Weather observations for the past three days for
Prairie Du Chien Municipal Airport
Imperial (Metric)
Date Time (cdt) Wind (mph) Vis. (mi.) Weather Sky Cond. Temperature (ºF) Relative Humidity Wind Chill (°F) Heat Index (°F) Pressure Precipitation (in)
Air Dwpt 6 hour altimeter (in) sea level (mb) 1 hr 3 hr 6 hr
Max. Min.
18 18:35 Calm 10.00 Fair CLR 75 51.1 43% 78 30.18 0.0
18 18:15 Calm 10.00 Fair CLR 75.2 51.4 44% 78 30.18 0.0
18 17:55 Calm 10.00 Fair CLR 75.2 50.4 42% 78 30.19 0.0
18 17:35 Calm 10.00 Fair CLR 75.2 51.3 43% 78 30.19 0.0
18 17:15 Calm 10.00 Fair CLR 75 49.1 40% 77 30.2 0.0
18 16:55 Calm 10.00 Partly Cloudy SCT070 74.5 50.4 43% 30.2 0.0
18 16:35 Calm 10.00 Mostly Cloudy SCT048 SCT060 BKN070 73.9 49.6 42% 30.21 0.0
18 16:15 E 3 10.00 Partly Cloudy SCT060 SCT070 74.7 49.8 42% 30.21 0.0
18 15:55 Calm 10.00 Mostly Cloudy SCT060 BKN070 75 49.8 41% 78 30.21 0.0
18 15:35 Calm 10.00 Partly Cloudy SCT070 73.8 48.9 42% 30.21 0.0
18 15:15 Calm 10.00 Mostly Cloudy SCT042 SCT065 BKN070 73.2 50.4 45% 30.22 0.0
18 14:55 Calm 10.00 Overcast SCT047 SCT065 OVC070 74.3 51.3 45% 30.22 0.0
18 14:35 Calm 10.00 Overcast SCT047 OVC065 72.9 51.6 47% 30.22 0.0
18 14:15 Calm 10.00 Overcast SCT044 SCT055 OVC065 71.6 50.9 48% 30.22 0.0
18 13:55 Calm 10.00 Mostly Cloudy SCT008 SCT041 BKN065 71.8 52.2 50% 30.23 0.0
18 13:35 SE 3 10.00 Mostly Cloudy BKN049 BKN065 70.9 53.8 55% 30.23 0.0
18 13:15 E 6 10.00 Mostly Cloudy SCT004 SCT049 BKN060 70.9 54.1 56% 30.23 0.0
18 12:55 W 5 10.00 Mostly Cloudy SCT006 SCT049 BKN065 72 50.9 73.2 55.2 48% 30.23 0.0
18 12:35 NW 3 10.00 Partly Cloudy SCT065 72.5 51.8 48% 30.23 0.0
18 12:15 Calm 10.00 Mostly Cloudy SCT043 SCT050 BKN065 70.9 51.8 51% 30.24 0.0
18 11:55 Calm 10.00 Mostly Cloudy SCT044 BKN055 71.1 51.4 50% 30.24 0.0
18 11:35 Calm 10.00 Partly Cloudy SCT065 69.4 52.2 54% 30.24 0.0
18 11:15 Calm 10.00 Partly Cloudy SCT055 70.2 55.4 60% 30.24 0.0
18 10:55 Calm 10.00 Mostly Cloudy SCT032 SCT043 BKN055 69.1 55.9 63% 30.24 0.0
18 10:35 Calm 10.00 Mostly Cloudy SCT032 BKN041 69.1 56.5 64% 30.24 0.0
18 10:15 Calm 10.00 Fair CLR 68 54.9 63% 30.24 0.0
18 09:55 Calm 10.00 Fair CLR 68.7 57.2 67% 30.24 0.0
18 09:35 Calm 10.00 Fair CLR 67.1 56.1 68% 30.25 0.0
18 09:15 Calm 10.00 Fair CLR 66 57.6 74% 30.25 0.0
18 08:55 Calm 10.00 Fair CLR 64.6 57.4 78% 30.25 0.0
18 08:35 Calm 10.00 Fair CLR 62.8 57.6 83% 30.25 0.0
18 08:15 Calm 10.00 Fair CLR 61.2 57.2 87% 30.25 0.0
18 07:55 Calm 10.00 Fair CLR 59.7 56.1 88% 30.24 0.0
18 07:35 Calm 10.00 Fair CLR 58.5 55.2 89% 30.24 0.0
18 06:35 Calm 10.00 Fair CLR 54 52 93% 30.23 0.0
18 06:15 Calm 10.00 Fair CLR 53.1 51.3 94% 30.23 0.0
18 05:55 Calm 10.00 Fair CLR 53.1 51.3 94% 30.22 0.0
18 05:35 Calm 10.00 Fair CLR 53.2 51.3 93% 30.22 0.0
18 05:15 Calm 10.00 Fair CLR 53.1 51.1 93% 30.22 0.0
18 04:55 Calm 10.00 Fair CLR 53.8 51.8 93% 30.22 0.0
18 04:35 Calm 10.00 Fair CLR 53.6 51.4 92% 30.21 0.0
18 04:15 Calm 10.00 Fair CLR 54 51.6 92% 30.21 0.0
18 03:55 Calm 10.00 Fair CLR 54 51.4 91% 30.21 0.0
18 03:35 Calm 10.00 Fair CLR 55.2 52.2 90% 30.21 0.0
18 03:15 Calm 10.00 Fair CLR 55 51.8 89% 30.21 0.0
18 02:55 Calm 10.00 Fair CLR 55.4 52.5 90% 30.2 0.0
18 02:35 Calm 10.00 Fair CLR 55.4 52.5 90% 30.2 0.0
18 02:15 Calm 10.00 Fair CLR 56.1 52.5 88% 30.2 0.0
18 01:55 Calm 10.00 Fair CLR 57.7 52.9 84% 30.2 0.0
18 01:35 Calm 10.00 Fair CLR 57.2 52.7 85% 30.2 0.0
18 01:15 Calm 10.00 Fair CLR 59.4 52.3 78% 30.19 0.0
18 01:00 Calm 10.00 Fair CLR 59.7 52.2 76% 30.2 0.0
18 00:35 Calm 10.00 Fair CLR 60.8 51.3 71% 30.18 0.0
18 00:15 Calm 10.00 Fair CLR 61.2 51.3 70% 30.18 0.0
17 23:55 NE 6 10.00 Fair CLR 63 50.9 65% 30.17 0.0
17 23:35 NE 6 10.00 Fair CLR 63.1 50.9 65% 30.17 0.0
17 23:15 NE 7 10.00 Fair CLR 63 51.4 66% 30.16 0.0
17 22:55 NE 8 10.00 Fair CLR 63 52.2 68% 30.16 0.0
17 22:35 NE 7 10.00 Fair CLR 63.3 52.7 68% 30.15 0.0
17 22:15 NE 6 10.00 Fair CLR 63.9 53.2 69% 30.15 0.0
17 21:55 NE 7 10.00 Fair CLR 63.9 53.8 70% 30.14 0.0
17 21:35 Calm 10.00 Fair CLR 64 54.5 71% 30.14 0.0
17 21:15 NE 6 10.00 Fair CLR 64.4 54.9 71% 30.13 0.0
17 20:55 Calm 10.00 Fair CLR 65.8 55 68% 30.12 0.0
17 20:35 Calm 10.00 Fair CLR 68.2 54 61% 30.12 0.0
17 20:15 NE 5 10.00 Fair CLR 69.8 53.2 56% 30.12 0.0
17 19:55 NE 7 10.00 Partly Cloudy SCT060 70.9 52.9 53% 30.12 0.0
17 19:35 N 7 10.00 Fair CLR 72.1 52.7 51% 30.11 0.0
17 19:15 N 7 10.00 Partly Cloudy SCT070 72.7 52.5 49% 30.1 0.0
17 18:55 N 10 G 17 10.00 Partly Cloudy SCT070 72.5 51.8 76.1 72.5 48% 30.1 0.0
17 18:35 N 13 10.00 Partly Cloudy SCT060 74.5 50.4 43% 30.09 0.0
17 18:15 N 10 10.00 Partly Cloudy SCT070 75.2 50.4 42% 78 30.09 0.0
17 17:55 N 9 G 16 10.00 Fair CLR 74.8 50.2 42% 30.09 0.0
17 17:35 N 12 G 18 10.00 Fair CLR 75.2 49.5 40% 78 30.09 0.0
17 17:15 N 9 10.00 Partly Cloudy SCT065 75.4 51.8 44% 78 30.09 0.0
17 16:55 NW 12 G 16 10.00 Partly Cloudy SCT014 SCT044 SCT055 75.4 51.3 43% 78 30.08 0.0
17 16:35 N 7 10.00 Partly Cloudy SCT002 SCT013 SCT055 75.6 50.9 42% 78 30.08 0.0
17 16:15 N 8 G 16 10.00 Partly Cloudy SCT002 SCT011 SCT041 76.1 52.9 45% 78 30.08 0.0
17 15:55 N 6 10.00 Partly Cloudy SCT060 74.3 50.9 44% 30.08 0.0
17 15:35 N 8 G 16 10.00 Partly Cloudy SCT060 75.4 51.6 44% 78 30.09 0.0
17 15:15 NW 12 G 17 10.00 Fair CLR 75.6 51.8 44% 78 30.09 0.0
17 14:55 NW 9 10.00 Fair CLR 75 51.6 44% 78 30.09 0.0
17 14:35 NW 9 10.00 Partly Cloudy SCT048 SCT065 74.1 51.3 45% 30.09 0.0
17 14:15 NW 7 10.00 Partly Cloudy SCT050 SCT065 73.8 51.8 46% 30.09 0.0
17 13:55 NW 8 G 16 10.00 Partly Cloudy SCT050 73.8 52.3 47% 30.08 0.0
17 13:35 N 8 10.00 Fair CLR 73.8 52 47% 30.09 0.0
17 13:15 N 10 G 16 10.00 Partly Cloudy SCT048 SCT065 73.6 52 47% 30.08 0.0
17 12:55 NE 10 G 16 10.00 Partly Cloudy SCT048 SCT065 73.6 52.3 74.3 64.2 48% 30.08 0.0
17 12:35 N 9 10.00 Fair CLR 73.8 52.2 47% 30.08 0.0
17 12:15 N 8 10.00 Fair CLR 73 52.9 49% 30.07 0.0
17 11:55 NW 10 10.00 Fair CLR 72.5 53.8 52% 30.07 0.0
17 11:35 N 12 G 16 10.00 Fair CLR 72.7 53.6 51% 30.07 0.0
17 11:15 N 10 G 16 10.00 Partly Cloudy SCT050 72.1 54.3 54% 30.06 0.0
17 10:55 N 8 G 18 10.00 Partly Cloudy SCT041 SCT050 73 54 51% 30.06 0.0
17 10:35 N 9 10.00 Partly Cloudy SCT041 SCT050 72.3 55.9 57% 30.06 0.0
17 10:15 N 9 10.00 Fair CLR 71.4 54.7 56% 30.05 0.0
17 09:55 NW 7 10.00 Fair CLR 70.7 55.4 59% 30.05 0.0
17 09:35 NW 9 10.00 Fair CLR 70.3 55 59% 30.04 0.0
17 09:15 NW 8 10.00 Fair CLR 69.8 55.2 60% 30.04 0.0
17 08:55 N 8 10.00 Fair CLR 69.1 57.9 68% 30.04 0.0
17 08:15 NW 8 10.00 Fair CLR 67.5 59.7 76% 30.04 0.0
17 07:55 Calm 10.00 Fair CLR 66.6 60.4 81% 30.03 0.0
17 07:35 Calm 10.00 Fair CLR 65.8 60.8 84% 30.03 0.0
17 07:15 Calm 10.00 Fair CLR 65.1 60.4 85% 30.03 0.0
17 06:55 Calm 10.00 Fair CLR 64 60.4 65.3 61.3 88% 30.02 0.0
17 06:35 Calm 10.00 Fair CLR 63.1 59.4 88% 30.01 0.0
17 06:15 Calm 10.00 Fair CLR 63 59.2 88% 30 0.0
17 05:55 Calm 10.00 Fair CLR 63 59.2 88% 30 0.0
17 05:35 Calm 10.00 Fair CLR 63 59.4 88% 29.99 0.0
17 05:15 Calm 10.00 Fair CLR 63.1 59.5 88% 29.98 0.0
17 04:55 Calm 10.00 Fair CLR 61.7 59.4 92% 29.97 0.0
17 04:35 Calm 10.00 Fair CLR 61.7 59.4 92% 29.96 0.0
17 04:15 Calm 10.00 Fair CLR 61.3 59.2 93% 29.96 0.0
17 04:00 Calm 10.00 Fair CLR 61.7 59.2 92% 29.95 0.0
17 03:35 Calm 10.00 Fair CLR 62.4 59.7 91% 29.95 0.0
17 03:15 Calm 10.00 Fair CLR 61.9 59.4 92% 29.94 0.0
17 03:00 Calm 10.00 Fair CLR 62.1 59.5 92% 29.95 0.0
17 02:35 Calm 10.00 Fair CLR 62.6 59.5 90% 29.94 0.0
17 02:15 Calm 10.00 Fair CLR 62.6 59.7 90% 29.94 0.0
17 01:55 Calm 10.00 Fair CLR 63.5 60.1 89% 29.94 0.0
17 01:35 Calm 10.00 Fair CLR 63 59.9 90% 29.95 0.0
17 01:15 Calm 10.00 Fair CLR 64.2 60.1 87% 29.95 0.0
17 00:55 Calm 10.00 Fair CLR 64.6 60.3 79.9 64.4 86% 29.94 0.0
17 00:35 Calm 10.00 Fair CLR 66 60.6 83% 29.94 0.0
17 00:15 Calm 10.00 Fair CLR 66.9 60.1 79% 29.93 0.0
16 23:55 Calm 10.00 Fair CLR 66.4 60.3 81% 29.92 0.0
16 23:35 Calm 10.00 Fair CLR 69.6 60.3 72% 29.92 0.0
16 23:15 Calm 10.00 Fair CLR 69.8 60.1 71% 29.91 0.0
16 22:55 Calm 10.00 Fair CLR 69.8 59.9 71% 29.91 0.0
16 22:35 Calm 10.00 Fair CLR 68.9 60.3 74% 29.9 0.0
16 22:15 Calm 10.00 Fair CLR 70.3 60.3 71% 29.9 0.0
16 21:55 Calm 10.00 Fair CLR 72 59.9 66% 29.9 0.0
16 21:35 Calm 10.00 Fair CLR 72.5 59.2 63% 29.9 0.0
16 21:15 NW 6 10.00 Fair CLR 73.6 58.6 60% 29.89 0.0
16 20:55 NW 6 10.00 Fair CLR 74.5 58.3 57% 29.89 0.0
16 20:35 NW 6 10.00 Fair CLR 76.3 57.4 52% 78 29.89 0.0
16 20:15 NW 12 G 16 10.00 Fair CLR 77 57.2 51% 79 29.88 0.0
16 19:35 NW 9 10.00 Partly Cloudy SCT095 SCT120 78.4 56.5 47% 79 29.87 0.0
16 19:15 NW 7 10.00 Fair CLR 78.8 57.9 49% 80 29.87 0.0
16 18:55 NW 10 10.00 Fair CLR 80.1 57.4 82.9 79.7 46% 80 29.87 0.0
16 18:35 NW 9 10.00 Partly Cloudy SCT055 SCT080 80.2 58.1 47% 81 29.87 0.0
16 18:15 NW 6 10.00 Partly Cloudy SCT050 SCT080 81.3 60.1 49% 82 29.87 0.0
16 17:55 W 7 10.00 Mostly Cloudy SCT070 BKN080 81.1 61.3 51% 82 29.87 0.0
16 17:35 Calm 10.00 Mostly Cloudy SCT070 BKN085 80.4 63 55% 82 29.86 0.0
16 17:15 NW 6 10.00 Partly Cloudy SCT085 80.1 61.9 54% 81 29.87 0.0
16 16:55 N 5 10.00 Partly Cloudy SCT050 SCT080 81.1 60.6 50% 82 29.86 0.0
16 16:35 N 8 10.00 Overcast SCT050 BKN065 OVC075 80.2 61.3 53% 81 29.87 0.0
16 16:15 Calm 10.00 Mostly Cloudy SCT060 BKN075 82.2 60.6 48% 83 29.88 0.0
16 15:55 Calm 10.00 Mostly Cloudy SCT060 BKN075 81.7 62.1 51% 83 29.87 0.0
16 15:35 NW 6 10.00 Partly Cloudy SCT075 80.6 61.3 52% 82 29.88 0.0
16 15:15 Calm 10.00 Partly Cloudy SCT075 81.7 59.2 46% 82 29.87 0.0
16 14:55 Calm 10.00 Partly Cloudy SCT050 SCT075 82.2 59.9 47% 83 29.87 0.0
16 14:35 N 6 10.00 Partly Cloudy SCT050 SCT065 80.6 56.5 44% 81 29.87 0.0
16 14:15 NE 7 10.00 Mostly Cloudy BKN050 80.6 57.9 46% 81 29.86 0.0
16 13:55 N 5 10.00 Mostly Cloudy BKN050 80.6 57.7 46% 81 29.85 0.0
16 13:35 N 5 10.00 Partly Cloudy SCT050 SCT060 80.8 59.2 48% 81 29.84 0.0
16 13:15 NW 9 10.00 Partly Cloudy SCT046 80.8 62.6 54% 82 29.84 0.0
16 12:55 NW 13 G 16 10.00 Partly Cloudy SCT041 SCT055 80.4 62.4 81.1 71.1 54% 82 29.84 0.0
16 12:35 NW 5 10.00 Partly Cloudy SCT043 80.1 62.4 55% 81 29.84 0.0
16 12:15 NW 9 10.00 Fair CLR 80.2 62.1 54% 81 29.84 0.0
16 11:55 NW 10 10.00 Fair CLR 79.9 61.3 53% 81 29.84 0.0
16 11:35 N 8 10.00 Fair CLR 79.9 61.9 54% 81 29.84 0.0
16 11:15 NW 6 10.00 Fair CLR 79 65.5 63% 81 29.84 0.0
16 10:55 Calm 10.00 Fair CLR 78.4 64.8 63% 80 29.83 0.0
16 10:35 Calm 10.00 Fair CLR 78.4 66.2 66% 80 29.83 0.0
16 10:15 N 6 10.00 Fair CLR 78.1 64.6 63% 80 29.83 0.0
16 09:55 NE 5 10.00 Fair CLR 77.7 64.9 65% 80 29.83 0.0
16 09:35 N 6 10.00 Fair CLR 77 68.7 76% 79 29.82 0.0
16 09:15 N 5 10.00 Fair CLR 75.7 68.4 78% 77 29.82 0.0
16 08:55 NW 7 10.00 Partly Cloudy SCT012 75.4 68.9 80% 76 29.82 0.0
16 08:35 NW 5 10.00 Mostly Cloudy BKN010 74.5 69.1 83% 29.81 0.0
16 08:15 NW 6 10.00 Mostly Cloudy BKN010 73.6 69.3 86% 29.81 0.0
16 07:55 NW 5 10.00 Mostly Cloudy BKN008 72.5 68.9 89% 29.81 0.0
16 07:15 NW 5 10.00 Mostly Cloudy SCT008 BKN012 71.2 68.7 92% 29.79 0.0
16 06:55 W 6 10.00 Overcast OVC010 71.1 68.5 71.8 68.5 92% 29.79 0.0
16 06:35 W 3 10.00 Overcast OVC010 71.4 69.1 92% 29.78 0.0
16 06:15 Calm 10.00 Overcast OVC010 70.9 68.9 94% 29.77 0.0
16 05:55 Calm 10.00 Overcast OVC010 70.5 68.9 95% 29.76 0.0
16 05:35 Calm 10.00 Mostly Cloudy BKN010 69.6 67.8 94% 29.76 0.0
16 05:15 Calm 10.00 Partly Cloudy SCT012 SCT055 69.1 67.1 93% 29.76 0.0
16 04:55 Calm 10.00 Partly Cloudy SCT055 69.3 67.3 93% 29.76 0.0
16 04:35 Calm 10.00 Fair CLR 69.1 67.1 93% 29.76 0.0
16 04:15 Calm 10.00 Partly Cloudy SCT011 70.2 67.8 92% 29.75 0.0
16 03:55 Calm 10.00 Partly Cloudy SCT013 68.9 67.1 94% 29.74 0.0
16 03:35 Calm 10.00 Fair CLR 69.1 67.3 94% 29.75 0.0
16 03:15 Calm 10.00 Fair CLR 69.8 67.8 93% 29.75 0.0
16 02:55 Calm 10.00 Fair CLR 69.8 67.6 93% 29.75 0.0
16 02:35 Calm 10.00 Fair CLR 70.2 67.5 91% 29.75 0.0
16 02:15 Calm 10.00 Fair CLR 70.9 67.6 90% 29.75 0.0
16 01:55 Calm 10.00 Partly Cloudy SCT030 71.2 67.6 88% 29.75 0.0
16 01:35 Calm 10.00 Partly Cloudy SCT032 71.6 68 88% 29.75 0.0
16 01:15 Calm 10.00 Mostly Cloudy SCT028 BKN034 71.1 67.6 89% 29.75 0.0
16 00:55 Calm 10.00 Mostly Cloudy SCT028 SCT034 BKN044 71.2 67.6 72.9 70.5 88% 29.76 0.0
16 00:35 Calm 10.00 Partly Cloudy SCT044 SCT050 70.9 67.5 89% 29.75 0.0
16 00:15 Calm 10.00 Partly Cloudy SCT044 SCT050 SCT065 71.2 67.5 88% 29.75 0.0
15 23:55 Calm 10.00 Mostly Cloudy SCT035 SCT042 BKN050 71.6 67.6 87% 29.75 0.0
15 23:35 Calm 10.00 Mostly Cloudy SCT041 BKN055 BKN065 71.6 67.1 86% 29.75 0.0
15 23:15 Calm 10.00 Mostly Cloudy BKN060 70.7 66.6 87% 29.75 0.0
15 22:55 Calm 10.00 Fair CLR 70.7 66.4 86% 29.74 0.0
15 22:35 Calm 10.00 Fair CLR 71.1 66.2 85% 29.73 0.0
15 22:15 Calm 10.00 Fair CLR 71.2 66 84% 29.73 0.0
15 21:55 Calm 10.00 Fair CLR 71.6 66.2 83% 29.73 0.0
15 21:35 Calm 10.00 Fair CLR 71.8 66.2 83% 29.73 0.0
15 21:15 Calm 10.00 Partly Cloudy SCT021 SCT033 SCT038 72 66.6 83% 29.71 0.0
15 20:55 Calm 10.00 Partly Cloudy SCT031 SCT043 72.5 67.5 84% 29.72 0.0
15 20:35 Calm 10.00 Fair CLR 72.5 67.6 85% 29.71 0.0
15 20:15 Calm 10.00 Fair CLR 72.1 67.3 85% 29.7 0.0
15 19:55 Calm 10.00 Fair CLR 72.5 67.1 83% 29.69 0.0
15 19:35 Calm 10.00 Fair CLR 72 67.5 86% 29.68 0.0
15 19:15 Calm 10.00 Partly Cloudy SCT002 SCT011 SCT022 72.5 67.3 84% 29.67 0.0
15 18:55 Calm 10.00 Light Drizzle SCT002 SCT022 BKN050 72.5 68 88.3 72.5 86% 29.67 0.0
Date Time (cdt) Wind (mph) Vis. (mi.) Weather Sky Cond. Air Dwpt Max. Min. Relative Humidity Wind Chill (°F) Heat Index (°F) altimeter (in) sea level (mb) 1 hr 3 hr 6 hr
6 hour
Temperature (ºF) Pressure Precipitation (in)